Scottsboro, AL

6:28 PM CST on February 23, 2017 (GMT -0600)
Scottsboro

Weather History for K4A6 - December, 2012

Change the Weather History Date:

Saturday, December 29, 2012

  Actual Average (KHSV) Record (KHSV)
Temperature  
Mean Temperature 36 °F -  
Max Temperature 41 °F 49 °F 69 °F (1996)
Min Temperature 32 °F 33 °F 12 °F (1925)
Degree Days  
Heating Degree Days 28    
Moisture  
Dew Point 31 °F    
Average Humidity 81    
Maximum Humidity 100    
Minimum Humidity 65    
Precipitation  
Precipitation 0.04 in - - ()
Sea Level Pressure  
Sea Level Pressure 30.07 in    
Wind  
Wind Speed 7 mph (WNW)    
Max Wind Speed 13 mph    
Max Gust Speed 21 mph    
Visibility 2 miles    
Events Rain    
Averages and records for this station are not official NWS values.
T = Trace of Precipitation, MM = Missing Value Source: NWS Daily Summary

Daily Weather History Graph

Daily Weather History Graph

Search for Another Location

Airport or City:

Trip Planner

Search our weather history database for the weather conditions in past years. The results will help you decide how hot, cold, wet, or windy it might be!

Date:

Astronomy

Dec. 29, 2012 Rise Set
Actual Time 6:50 AM CST 4:42 PM CST
Civil Twilight 6:22 AM CST 5:10 PM CST
Nautical Twilight 5:51 AM CST 5:41 PM CST
Astronomical Twilight 5:20 AM CST 6:12 PM CST
Moon 6:10 PM CST (12/29) 7:27 AM CST (12/29)
Length of Visible Light 10h 47m
Length of Day
9h 51m
Full, 98% of the Moon is Illuminated
Dec 29
Full
Jan 4
Last Quarter
Jan 11
New
Jan 18
First Quarter
Jan 26
Full

Hourly Weather History & Observations

Time (CST) Temp. Windchill Dew Point Humidity Pressure Visibility Wind Dir Wind Speed Gust Speed Precip Events Conditions
12:15 AM 41.0 °F 36.4 °F 39.2 °F 93% 29.83 in 1.5 mi West 6.9 mph - N/A Rain Light Rain
12:35 AM 41.0 °F 37.1 °F 39.2 °F 93% 29.84 in 1.2 mi SW 5.8 mph - 0.01 in Rain Light Rain
12:55 AM 41.0 °F 39.0 °F 39.2 °F 93% 29.84 in 1.2 mi SW 3.5 mph - 0.02 in Rain Light Rain
1:15 AM 41.0 °F 38.0 °F 39.2 °F 93% 29.84 in 1.5 mi SW 4.6 mph - 0.01 in Rain Light Rain
1:35 AM 41.0 °F 39.0 °F 39.2 °F 93% 29.84 in 1.2 mi SSW 3.5 mph - 0.01 in   Mostly Cloudy
1:55 AM 41.0 °F 36.4 °F 39.2 °F 93% 29.84 in 1.2 mi South 6.9 mph - 0.01 in   Overcast
2:15 AM 41.0 °F 38.0 °F 41.0 °F 100% 29.84 in 1.8 mi SSW 4.6 mph - N/A Rain Light Rain
2:35 AM 41.0 °F 39.0 °F 41.0 °F 100% 29.83 in 1.5 mi SSW 3.5 mph - 0.01 in Rain Light Rain
2:55 AM 41.0 °F 37.1 °F 41.0 °F 100% 29.84 in 1.8 mi WSW 5.8 mph - 0.01 in Rain Light Rain
3:15 AM 41.0 °F 37.1 °F 41.0 °F 100% 29.84 in 2.5 mi WSW 5.8 mph - N/A   Overcast
3:35 AM 41.0 °F 37.1 °F 41.0 °F 100% 29.84 in 1.2 mi WSW 5.8 mph - N/A   Overcast
3:55 AM 41.0 °F 37.1 °F 41.0 °F 100% 29.84 in 3.0 mi WNW 5.8 mph - N/A   Overcast
4:15 AM 41.0 °F 34.7 °F 39.2 °F 93% 29.85 in 3.0 mi WNW 10.4 mph 17.3 mph N/A   Overcast
4:35 AM 41.0 °F 34.3 °F 37.4 °F 87% 29.87 in 4.0 mi NW 11.5 mph 17.3 mph N/A   Overcast
4:55 AM 39.2 °F 32.0 °F 37.4 °F 93% 29.89 in 4.0 mi WNW 11.5 mph 20.7 mph N/A   Overcast
5:35 AM 39.2 °F 32.0 °F 33.8 °F 81% 29.91 in 4.0 mi WNW 11.5 mph 16.1 mph N/A   Haze
5:55 AM 39.2 °F 32.5 °F 35.6 °F 87% 29.92 in 2.0 mi WNW 10.4 mph - N/A Rain Light Rain
6:15 AM 39.2 °F 35.0 °F 35.6 °F 87% 29.94 in 2.5 mi WNW 5.8 mph - N/A   Mostly Cloudy
6:55 AM 39.2 °F 33.0 °F 33.8 °F 81% 29.96 in 2.5 mi WNW 9.2 mph - N/A Rain Light Rain
7:15 AM 37.4 °F 31.4 °F 33.8 °F 87% 29.97 in 1.0 mi WNW 8.1 mph 18.4 mph N/A Rain Light Rain
7:35 AM 37.4 °F 29.8 °F 32.0 °F 81% 29.97 in 2.5 mi WNW 11.5 mph - N/A   Haze
7:55 AM 37.4 °F 31.4 °F 32.0 °F 81% 29.99 in 2.5 mi NW 8.1 mph - N/A   Haze
8:15 AM 37.4 °F 32.1 °F 32.0 °F 81% 30.00 in 2.5 mi WNW 6.9 mph - N/A   Haze
8:35 AM 37.4 °F 31.4 °F 32.0 °F 81% 30.02 in 2.5 mi West 8.1 mph - N/A   Haze
8:55 AM 37.4 °F 29.3 °F 32.0 °F 81% 30.02 in 2.5 mi West 12.7 mph - N/A   Haze
9:15 AM 37.4 °F 30.3 °F 32.0 °F 81% 30.03 in 2.0 mi WNW 10.4 mph - N/A   Haze
9:35 AM 37.4 °F 31.4 °F 32.0 °F 81% 30.04 in 2.0 mi WNW 8.1 mph - N/A   Haze
9:55 AM 37.4 °F 30.8 °F 32.0 °F 81% 30.05 in 2.0 mi West 9.2 mph - N/A   Haze
10:15 AM 37.4 °F 31.4 °F 32.0 °F 81% 30.05 in 1.5 mi WNW 8.1 mph - N/A   Haze
10:35 AM 35.6 °F 29.9 °F 32.0 °F 87% 30.05 in 0.8 mi West 6.9 mph - N/A Rain Light Rain
10:55 AM 35.6 °F 28.6 °F 32.0 °F 87% 30.05 in 1.2 mi WNW 9.2 mph 16.1 mph N/A Rain Light Rain
11:15 AM 35.6 °F 29.2 °F 32.0 °F 87% 30.05 in 2.0 mi WNW 8.1 mph - N/A   Overcast
11:35 AM 35.6 °F 27.1 °F 32.0 °F 87% 30.05 in 2.0 mi West 12.7 mph - N/A   Haze
11:55 AM 35.6 °F 28.0 °F 30.2 °F 81% 30.05 in 2.0 mi WNW 10.4 mph - N/A   Haze
12:15 PM 35.6 °F 28.6 °F 28.4 °F 75% 30.05 in 2.0 mi WNW 9.2 mph 18.4 mph N/A   Haze
12:55 PM 37.4 °F 29.8 °F 28.4 °F 70% 30.06 in 2.5 mi WNW 11.5 mph 16.1 mph N/A   Haze
1:15 PM 37.4 °F 32.8 °F 28.4 °F 70% 30.06 in 2.0 mi NW 5.8 mph - N/A   Haze
1:55 PM 35.6 °F 29.9 °F 28.4 °F 75% 30.08 in 1.8 mi WNW 6.9 mph - N/A Rain Light Rain
2:15 PM 35.6 °F 28.6 °F 28.4 °F 75% 30.09 in 1.8 mi West 9.2 mph 16.1 mph N/A Rain Light Rain
2:55 PM 35.6 °F 32.8 °F 28.4 °F 75% 30.11 in 2.0 mi NNW 3.5 mph - N/A   Haze
3:15 PM 35.6 °F 29.9 °F 28.4 °F 75% 30.12 in 2.0 mi WNW 6.9 mph - N/A   Haze
3:35 PM 35.6 °F 29.2 °F 28.4 °F 75% 30.13 in 2.0 mi WNW 8.1 mph - N/A   Haze
3:55 PM 35.6 °F 28.6 °F 30.2 °F 81% 30.14 in 2.0 mi WNW 9.2 mph - N/A   Haze
4:15 PM 35.6 °F 28.6 °F 28.4 °F 75% 30.15 in 1.8 mi West 9.2 mph - N/A Rain Light Rain
4:35 PM 35.6 °F 29.9 °F 28.4 °F 75% 30.16 in 3.0 mi NW 6.9 mph - N/A   Haze
4:55 PM 35.6 °F 29.9 °F 28.4 °F 75% 30.17 in 3.0 mi NW 6.9 mph - N/A   Haze
5:15 PM 35.6 °F 31.7 °F 28.4 °F 75% 30.19 in 3.0 mi NW 4.6 mph - N/A   Haze
5:35 PM 35.6 °F 29.9 °F 28.4 °F 75% 30.20 in 3.0 mi NW 6.9 mph - N/A   Haze
5:55 PM 35.6 °F 29.9 °F 26.6 °F 70% 30.21 in 3.0 mi NW 6.9 mph - N/A   Haze
6:15 PM 35.6 °F 29.2 °F 26.6 °F 70% 30.22 in 3.0 mi WNW 8.1 mph - N/A   Haze
6:35 PM 35.6 °F 29.2 °F 26.6 °F 70% 30.22 in 3.0 mi WNW 8.1 mph - N/A   Haze
6:55 PM 35.6 °F 27.5 °F 24.8 °F 65% 30.24 in 3.0 mi WNW 11.5 mph 16.1 mph N/A   Haze
7:15 PM 35.6 °F 30.7 °F 26.6 °F 70% 30.25 in 3.0 mi NW 5.8 mph - N/A   Haze
7:35 PM 33.8 °F 27.7 °F 26.6 °F 75% 30.26 in 2.5 mi NW 6.9 mph - N/A   Haze
7:55 PM 33.8 °F 25.8 °F 24.8 °F 70% 30.27 in 3.0 mi NW 10.4 mph - N/A   Haze
8:15 PM 33.8 °F 30.8 °F 24.8 °F 70% 30.28 in 3.0 mi NW 3.5 mph - N/A   Haze
8:35 PM 33.8 °F 25.8 °F 24.8 °F 70% 30.29 in 3.0 mi NW 10.4 mph - N/A   Haze
9:15 PM 33.8 °F 27.7 °F 24.8 °F 70% 30.30 in 3.0 mi NW 6.9 mph - N/A   Haze
9:35 PM 33.8 °F 29.6 °F 24.8 °F 70% 30.31 in 3.0 mi NNW 4.6 mph - N/A   Haze
9:55 PM 33.8 °F 29.6 °F 24.8 °F 70% 30.32 in 3.0 mi NW 4.6 mph - N/A   Haze
10:15 PM 32.0 °F 26.4 °F 24.8 °F 75% 30.33 in 3.0 mi NNW 5.8 mph 18.4 mph N/A   Haze
10:35 PM 32.0 °F 24.2 °F 23.0 °F 69% 30.33 in 3.0 mi NNW 9.2 mph - N/A   Haze
10:55 PM 32.0 °F 27.5 °F 23.0 °F 69% 30.34 in 3.0 mi NNW 4.6 mph - N/A   Haze
11:15 PM 32.0 °F 26.4 °F 24.8 °F 75% 30.34 in 3.0 mi NW 5.8 mph - N/A   Haze
11:35 PM 32.0 °F 26.4 °F 23.0 °F 69% 30.34 in 3.0 mi NNW 5.8 mph - N/A   Haze
11:55 PM 32.0 °F 28.7 °F 23.0 °F 69% 30.34 in 3.0 mi WNW 3.5 mph - N/A   Haze